Location: Boiro
(42.6475°N, 8.8834°W)
Time: 23:29:18
(UTC+01:00)

Altair - Pass Details

Date: 02 December 2021
Orbit: 1501 x 1683 km, 47.2° (Epoch: 18 January)

Event Time Altitude Azimuth Distance (km) Brightness Sun altitude
Rises 01:49:47 0° 290° (WNW) 4,637 - -68.7°
Reaches altitude 10° 01:53:50 10° 275° (W) 3,653 - -68.4°
Maximum altitude 01:59:50 20° 233° (SW) 2,969 - -68.1°
Drops below altitude 10° 02:05:54 10° 191° (S) 3,685 - -67.6°
Sets 02:10:04 0° 175° (S) 4,690 - -67.3°
